Overview Statistics Trail Chart Weather Telemetry Raw packets
 

This is the latest recevied weather packets stored in our database for station/object IW1QLH-13. If no packets are shown the sender has not sent any weather packets the latest 10 day(s).

<< 27 28 29 30 31 32 33 >>
Time Temp. Humidity Pressure Rain* Wind** Luminosity Snow
1788187888 30.56° C 11% - - - 657 W/m² -
1788187276 30° C 11% - - - 672 W/m² -
1788186664 30.56° C 11% - - - 715 W/m² -
1788186051 30° C 11% - - - 729 W/m² -
1788185437 30.56° C 11% - - - 772 W/m² -
1788184824 30° C 11% - - - 800 W/m² -
1788184210 30° C 11% - - - 829 W/m² -
1788183598 30° C 11% - - - 858 W/m² -
1788182980 31.67° C 10% - - - 886 W/m² -
1788182368 28.89° C 11% - - - 886 W/m² -
1788181756 30° C 11% - - - 829 W/m² -
1788181143 30° C 11% - - - 471 W/m² -
1788180531 30° C 11% - - - 943 W/m² -
1788179919 30° C 11% - - - 943 W/m² -
1788179307 30° C 11% - - - 929 W/m² -
1788178692 30.56° C 11% - - - 929 W/m² -
1788178081 30.56° C 11% - - - 929 W/m² -
1788177469 30° C 11% - - - 929 W/m² -
1788176857 30° C 11% - - - 943 W/m² -
1788176246 27.78° C 11% - - - 929 W/m² -
1788175631 28.89° C 11% - - - 900 W/m² -
1788175016 30.56° C 11% - - - 900 W/m² -
1788174405 28.89° C 11% - - - 886 W/m² -
1788173792 28.89° C 11% - - - 872 W/m² -
1788173181 27.78° C 11% - - - 872 W/m² -

* Rain since midnight (hover to see other rain measurements)
** Current wind speed in m/s (hover to see current wind gust speed)